Royersford, PA

8:05 AM EST on February 24, 2017 (GMT -0500)
Pottstown Limerick

Weather History for KPTW - October, 2012

Change the Weather History Date:

Friday, October 19, 2012

  Actual Average (KRDG) Record (KRDG)
Temperature  
Mean Temperature 66 °F -  
Max Temperature 73 °F 60 °F 85 °F (2016)
Min Temperature 60 °F 40 °F 22 °F (1974)
Cooling Degree Days 2    
Growing Degree Days 16 (Base 50)    
Moisture  
Dew Point 63 °F    
Average Humidity 92    
Maximum Humidity 100    
Minimum Humidity 73    
Precipitation  
Precipitation 1.13 in - - ()
Sea Level Pressure  
Sea Level Pressure 29.75 in    
Wind  
Wind Speed 4 mph (NNW)    
Max Wind Speed 10 mph    
Max Gust Speed 23 mph    
Visibility 7 miles    
Events Fog , Rain    
Averages and records for this station are not official NWS values.
T = Trace of Precipitation, MM = Missing Value Source: NWS Daily Summary

Daily Weather History Graph

Daily Weather History Graph

Search for Another Location

Airport or City:

Trip Planner

Search our weather history database for the weather conditions in past years. The results will help you decide how hot, cold, wet, or windy it might be!

Date:

Astronomy

Oct. 19, 2012 Rise Set
Actual Time 7:17 AM EDT 6:15 PM EDT
Civil Twilight 6:50 AM EDT 6:43 PM EDT
Nautical Twilight 6:18 AM EDT 7:14 PM EDT
Astronomical Twilight 5:47 AM EDT 7:46 PM EDT
Moon 11:58 AM EDT (10/19) 9:51 PM EDT (10/19)
Length of Visible Light 11h 53m
Length of Day
10h 58m
Waxing Crescent, 23% of the Moon is Illuminated
Oct 19
Waxing Crescent
Oct 21
First Quarter
Oct 29
Full
Nov 6
Last Quarter
Nov 13
New

Hourly Weather History & Observations

Time (EDT) Temp. Dew Point Humidity Pressure Visibility Wind Dir Wind Speed Gust Speed Precip Events Conditions
12:54 AM 64.0 °F 60.1 °F 87% 29.85 in 10.0 mi Variable 5.8 mph - 0.01 in Rain Light Rain
1:37 AM 64.4 °F 60.8 °F 88% 29.85 in 10.0 mi Variable 5.8 mph - 0.00 in Rain Light Rain
1:54 AM 64.0 °F 61.0 °F 90% 29.84 in 10.0 mi Variable 3.5 mph - 0.00 in   Overcast
2:54 AM 64.0 °F 61.0 °F 90% 29.81 in 10.0 mi Variable 5.8 mph - N/A   Overcast
3:09 AM 64.4 °F 62.6 °F 94% 29.82 in 10.0 mi Variable 3.5 mph - N/A   Overcast
3:21 AM 64.4 °F 62.6 °F 94% 29.81 in 10.0 mi Calm Calm - N/A   Overcast
3:35 AM 64.4 °F 62.6 °F 94% 29.80 in 2.5 mi Calm Calm - 0.06 in Rain Rain
3:43 AM 64.4 °F 62.6 °F 94% 29.81 in 5.0 mi Calm Calm - 0.07 in Rain Light Rain
3:50 AM 64.4 °F 62.6 °F 94% 29.81 in 7.0 mi NW 5.8 mph - 0.08 in Rain Light Rain
3:54 AM 63.0 °F 62.1 °F 97% 29.80 in 8.0 mi NW 9.2 mph - 0.08 in Rain Light Rain
4:01 AM 62.6 °F 60.8 °F 94% 29.82 in 7.0 mi NNW 6.9 mph - 0.01 in Rain Light Rain
4:04 AM 62.6 °F 60.8 °F 94% 29.82 in 1.5 mi WNW 6.9 mph - 0.14 in Rain Heavy Rain
4:12 AM 60.8 °F 60.8 °F 100% 29.81 in 0.5 mi Variable 4.6 mph - 0.41 in Fog , Rain Heavy Rain
4:19 AM 60.8 °F 60.8 °F 100% 29.81 in 0.8 mi South 3.5 mph - 0.49 in Rain Heavy Rain
4:33 AM 60.8 °F 60.8 °F 100% 29.81 in 2.0 mi NE 4.6 mph - 0.56 in Rain Heavy Rain
4:54 AM 61.0 °F 60.1 °F 97% 29.80 in 6.0 mi North 3.5 mph - 0.59 in Rain Light Rain
5:15 AM 60.8 °F 60.8 °F 100% 29.79 in 10.0 mi NE 6.9 mph - 0.04 in Rain Light Rain
5:29 AM 60.8 °F 60.8 °F 100% 29.80 in 1.8 mi NW 4.6 mph - 0.11 in Rain Heavy Rain
5:38 AM 60.8 °F 60.8 °F 100% 29.80 in 2.5 mi Calm Calm - 0.13 in Rain Light Rain
5:45 AM 60.8 °F 60.8 °F 100% 29.80 in 6.0 mi NE 4.6 mph - 0.14 in Rain Light Rain
5:54 AM 60.1 °F 59.0 °F 96% 29.78 in 5.0 mi NE 5.8 mph - 0.14 in Rain Light Rain
6:54 AM 61.0 °F 60.1 °F 97% 29.77 in 5.0 mi East 4.6 mph - 0.11 in Rain Light Rain
7:12 AM 60.8 °F 60.8 °F 100% 29.78 in 8.0 mi Variable 3.5 mph - 0.01 in Rain Light Rain
7:54 AM 63.0 °F 62.1 °F 97% 29.76 in 4.0 mi Calm Calm - 0.01 in Rain Light Rain
8:54 AM 64.9 °F 64.0 °F 97% 29.78 in 4.0 mi Variable 4.6 mph - 0.00 in   Overcast
9:13 AM 64.4 °F 64.4 °F 100% 29.79 in 2.5 mi Calm Calm - 0.01 in Rain Light Rain
9:29 AM 64.4 °F 64.4 °F 100% 29.76 in - North - - 0.03 in   Unknown
9:54 AM 66.0 °F 64.9 °F 96% 29.78 in 5.0 mi Variable 3.5 mph - 0.05 in Rain Light Rain
10:06 AM 66.2 °F 64.4 °F 94% 29.77 in 8.0 mi Variable 3.5 mph - 0.00 in   Overcast
10:54 AM 66.9 °F 66.0 °F 97% 29.75 in - Variable 4.6 mph - 0.00 in   Unknown
11:23 AM 66.2 °F 66.2 °F 100% 29.75 in 10.0 mi SSE 3.5 mph - N/A   Overcast
11:41 AM 68.0 °F 66.2 °F 94% 29.75 in 10.0 mi Variable 5.8 mph - N/A   Overcast
11:54 AM 68.0 °F 66.0 °F 93% 29.74 in 10.0 mi Variable 6.9 mph - N/A   Overcast
12:54 PM 69.1 °F 66.0 °F 90% 29.73 in 10.0 mi Calm Calm - N/A   Overcast
1:41 PM 69.8 °F 64.4 °F 83% 29.72 in 10.0 mi South 6.9 mph - N/A   Overcast
1:54 PM 71.1 °F 64.9 °F 81% 29.70 in 10.0 mi Variable 6.9 mph - N/A   Mostly Cloudy
2:54 PM 73.0 °F 64.0 °F 73% 29.68 in 10.0 mi Variable 5.8 mph - N/A   Scattered Clouds
3:05 PM 73.4 °F 64.4 °F 73% 29.68 in 10.0 mi Variable 5.8 mph - N/A   Mostly Cloudy
3:42 PM 73.4 °F 64.4 °F 73% 29.68 in 10.0 mi Variable 4.6 mph - N/A   Mostly Cloudy
3:54 PM 72.0 °F 63.0 °F 73% 29.67 in 10.0 mi Variable 4.6 mph - N/A   Mostly Cloudy
4:54 PM 73.0 °F 64.0 °F 73% 29.65 in 10.0 mi South 5.8 mph - N/A   Partly Cloudy
5:54 PM 70.0 °F 66.0 °F 87% 29.64 in 8.0 mi Calm Calm - 0.02 in   Overcast
6:54 PM 68.0 °F 64.9 °F 90% 29.63 in 10.0 mi Calm Calm - N/A   Mostly Cloudy
7:54 PM 66.9 °F 64.9 °F 93% 29.64 in 9.0 mi Calm Calm - N/A   Unknown
8:54 PM 66.9 °F 64.9 °F 93% 29.65 in 8.0 mi Calm Calm - N/A   Partly Cloudy
9:54 PM 66.0 °F 64.9 °F 96% 29.67 in 7.0 mi Variable 5.8 mph - 0.00 in Rain Light Rain
10:01 PM 64.4 °F 60.8 °F 88% 29.69 in 4.0 mi WSW 10.4 mph 23.0 mph 0.03 in Rain Rain
10:12 PM 62.6 °F 60.8 °F 94% 29.69 in 3.0 mi West 5.8 mph - 0.06 in Rain Rain
10:54 PM 62.1 °F 60.1 °F 93% 29.68 in 7.0 mi Calm Calm - 0.11 in Rain Light Rain
11:54 PM 62.1 °F 60.1 °F 93% 29.67 in 10.0 mi Calm Calm - 0.01 in   Overcast